Location: Cambroso
(45.2833°N, 12.0850°E)
Time: 20:01:09
(UTC+00:00)

Cosmos 1538 Rocket - Pass Details

Date: 21 January 2021
Orbit: 752 x 791 km, 74.0° (Epoch: 03 March)

Event Time Altitude Azimuth Distance (km) Brightness Sun altitude
Rises 16:32:31 0° 343° (NNW) 3,218 7.2 -5.5°
Reaches altitude 10° 16:35:02 10° 351° (N) 2,287 6.3 -5.9°
Maximum altitude 16:39:56 42° 62° (ENE) 1,074 4.3 -6.7°
Drops below altitude 10° 16:44:48 10° 133° (SE) 2,275 6.2 -7.5°
Sets 16:47:17 0° 140° (SE) 3,198 7.0 -7.9°
